Blytheville Muni Airport, AR

1:08 AM CDT on May 29, 2017 (GMT -0500)
Blytheville Municipal

Weather History for KHKA - January, 2014

Change the Weather History Date:

Friday, January 3, 2014

  Actual Average Record
Temperature  
Mean Temperature 22 °F -  
Max Temperature 30 °F 44 °F 72 °F (2000)
Min Temperature 15 °F 29 °F -20 °F (1974)
Degree Days  
Heating Degree Days 42    
Moisture  
Dew Point 13 °F    
Average Humidity 66    
Maximum Humidity 84    
Minimum Humidity 47    
Precipitation  
Precipitation 0.00 in - - ()
Sea Level Pressure  
Sea Level Pressure 30.44 in    
Wind  
Wind Speed 7 mph (ESE)    
Max Wind Speed 12 mph    
Max Gust Speed -    
Visibility 10 miles    
Events      
Averages and records for this station are not official NWS values.
T = Trace of Precipitation, MM = Missing Value Source: NWS Daily Summary

Daily Weather History Graph

Daily Weather History Graph

Search for Another Location

Airport or City:

Trip Planner

Search our weather history database for the weather conditions in past years. The results will help you decide how hot, cold, wet, or windy it might be!

Date:

Astronomy

Jan. 03, 2014 Rise Set
Actual Time 7:10 AM CST 4:57 PM CST
Civil Twilight 6:41 AM CST 5:26 PM CST
Nautical Twilight 6:09 AM CST 5:58 PM CST
Astronomical Twilight 5:38 AM CST 6:29 PM CST
Moon 8:41 AM CST (1/3) 8:00 PM CST (1/3)
Length of Visible Light 10h 44m
Length of Day
9h 47m
Waxing Crescent, 8% of the Moon is Illuminated
Jan 3
Waxing Crescent
Jan 7
First Quarter
Jan 15
Full
Jan 23
Last Quarter
Jan 30
New

Hourly Weather History & Observations

Time (CST) Temp. Windchill Dew Point Humidity Pressure Visibility Wind Dir Wind Speed Gust Speed Precip Events Conditions
12:53 AM 18.0 °F 8.7 °F 12.0 °F 78% 30.52 in 10.0 mi NNE 6.9 mph - N/A   Clear
1:53 AM 18.0 °F 7.7 °F 12.0 °F 78% 30.53 in 10.0 mi NNE 8.1 mph - N/A   Clear
2:53 AM 17.1 °F 10.0 °F 12.0 °F 81% 30.53 in 10.0 mi NNE 4.6 mph - N/A   Clear
3:53 AM 16.0 °F 7.4 °F 10.9 °F 81% 30.53 in 10.0 mi NNE 5.8 mph - N/A   Clear
4:53 AM 16.0 °F 7.4 °F 10.9 °F 81% 30.53 in 10.0 mi NNE 5.8 mph - N/A   Clear
5:53 AM 15.1 °F 7.7 °F 10.9 °F 84% 30.55 in 10.0 mi NNE 4.6 mph - N/A   Clear
6:53 AM 15.1 °F 7.7 °F 10.9 °F 84% 30.56 in 10.0 mi NNE 4.6 mph - N/A   Clear
7:53 AM 18.0 °F 11.1 °F 12.9 °F 81% 30.56 in 10.0 mi NE 4.6 mph - N/A   Clear
8:53 AM 21.0 °F 13.4 °F 14.0 °F 74% 30.57 in 10.0 mi East 5.8 mph - N/A   Clear
9:53 AM 23.0 °F 17.0 °F 15.1 °F 72% 30.57 in 10.0 mi East 4.6 mph - N/A   Clear
10:53 AM 25.0 °F 18.1 °F 12.9 °F 60% 30.54 in 10.0 mi ESE 5.8 mph - N/A   Clear
11:53 AM 27.0 °F 17.3 °F 12.0 °F 53% 30.49 in 10.0 mi SSE 10.4 mph - N/A   Clear
12:53 PM 28.9 °F 19.8 °F 10.9 °F 47% 30.46 in 10.0 mi SSE 10.4 mph - N/A   Clear
1:53 PM 30.0 °F 20.5 °F 12.9 °F 49% 30.43 in 10.0 mi South 11.5 mph - N/A   Clear
2:53 PM 30.9 °F 22.8 °F 12.9 °F 47% 30.40 in 10.0 mi South 9.2 mph - N/A   Clear
3:53 PM 30.9 °F 24.3 °F 12.9 °F 47% 30.39 in 10.0 mi South 6.9 mph - N/A   Clear
4:53 PM 28.9 °F 21.1 °F 15.1 °F 56% 30.36 in 10.0 mi South 8.1 mph - N/A   Clear
5:53 PM 27.0 °F 19.5 °F 16.0 °F 63% 30.35 in 10.0 mi SSE 6.9 mph - N/A   Clear
6:53 PM 27.0 °F 18.7 °F 15.1 °F 61% 30.32 in 10.0 mi SSE 8.1 mph - N/A   Clear
7:53 PM 26.1 °F 18.4 °F 15.1 °F 63% 30.30 in 10.0 mi South 6.9 mph - N/A   Clear
8:53 PM 26.1 °F 17.6 °F 16.0 °F 66% 30.28 in 10.0 mi SSE 8.1 mph - N/A   Clear
9:53 PM 26.1 °F 17.6 °F 15.1 °F 63% 30.26 in 10.0 mi SSE 8.1 mph - N/A   Clear
10:53 PM 27.0 °F 17.3 °F 14.0 °F 58% 30.25 in 10.0 mi South 10.4 mph - N/A   Clear
11:53 PM 27.0 °F 18.7 °F 15.1 °F 61% 30.25 in 10.0 mi South 8.1 mph - N/A   Clear